Regional Weather Roundup
Issued by NWS New Orleans/Baton Rouge, LA

Home | Current Version | Previous Version | Text Only | Print | Product List | Glossary On
Versions: 1 2 3 4 5 6 7 8 9 10 11 12 13 14 15 16 17 18 19 20 21 22 23 24 25
000
ASUS44 KLIX 291513
RWRLIX
NEW ORLEANS REGIONAL WEATHER ROUNDUP
NATIONAL WEATHER SERVICE NEW ORLEANS LA
1000 AM CDT THU JUN 29 2017

NOTE: "FAIR" INDICATES FEW OR NO CLOUDS BELOW 12,000 FEET WITH NO
      SIGNIFICANT WEATHER AND/OR OBSTRUCTIONS TO VISIBILITY.
      SKY/WX - SKY CONDITION AND SIGNIFICANT WEATHER.
      TMP - AIR TEMPERATURE.     DP    - DEWPOINT TEMPERATURE.
      RH  - RELATIVE HUMIDITY.   PRES  - PRESSURE.
      HI  - HEAT INDEX.          WCI   - WIND CHILL INDEX.

*  THESE STATIONS ARE NOT NWS OR FAA STATIONS AND ARE NOT UNDER
   NWS QUALITY CONTROL.

LAZ038-040-048-061>063-065>067-069-291600-
SOUTHEAST LOUISIANA

CITY           SKY/WX    TMP DP  RH WIND       PRES   REMARKS
N.O. INTL ARPT CLOUDY    79  75  87 SE9       30.01R
N.O. LAKEFRONT CLOUDY    80  76  87 SE9       30.01S
N.O. DOWNTOWN*   N/A     80  74  81 VRB6        N/A
RESERVE*       LGT RAIN  79  75  89 SE5       30.01R
SLIDELL        CLOUDY    78  74  87 E7        30.02R
BATON ROUGE    LGT RAIN  77  75  93 SE7       29.99S
BOOTHVILLE     CLOUDY    82  78  88 S8        30.03R
BELLE CHASSE   CLOUDY    79  77  94 SE10      30.01R
BOGALUSA*      CLOUDY    75  71  86 SE3       30.06R
GALLIANO*      LGT RAIN  79  75  89 SE6       30.01S
NEW ROADS*       N/A     77  75  93 SE7       29.98F
GONZALES*      LGT RAIN  74  74  98 S7        29.99S
HAMMOND*       CLOUDY    73  72  94 SE5       30.01S
HOUMA*         PTSUNNY   81  77  89 SE14      30.01R
PORT FOURCHON* MOSUNNY   81  77  89 S12       30.01S

$$

MSZ070-080>082-291600-
SOUTHERN MISSISSIPPI

CITY           SKY/WX    TMP DP  RH WIND       PRES   REMARKS
MCCOMB         HVY RAIN  73  71  93 SE12G18   30.02S FOG
GULFPORT       CLOUDY    76  75  97 SE7       30.03F
BILOXI         RAIN      76  74  95 E8        30.03F FOG
PASCAGOULA     LGT RAIN  76  71  85 CALM      30.05S
STENNIS ARPT*  CLOUDY    77  75  94 E5        30.03S

$$

COASTAL OBSERVATIONS
LAKE AND NEARSHORE STATIONS

STATION/POSITION TIME  TEMP    WIND        PRES    WAVE
                       AIR SEA DIR/SP/G            HT/PER
                 (UTC) (F)     (DEG/KT/KT) (MB)    (FT/S)
PASCAGOULA       1448   76      CALM  /  2 1017.0
WAVELAND YACHT   1448      80  150/ 11/ 12 1016.7
GRAND ISLE       1448   81 82  170/  5/ 12 1016.4
SOUTHWEST PASS   1442          170/ 13/ 15   N/A
NEW CANAL        1448   80 82  150/  6/ 12 1016.1
SHELL BEACH      1448   79 83  160/ 10/ 14 1016.5

OFFSHORE STATIONS

STATION/POSITION TIME  TEMP    WIND        PRES    WAVE
                       AIR SEA DIR/SP/G            HT/PER
                 (UTC) (F)     (DEG/KT/KT) (MB)    (FT/S)
64 S DAUPHIN ISL 1450   79 80  130/ 16/ 17 1017.4    2/ 4

$$





USA.gov is the U.S. government's official web portal to all federal, state and local government web resources and services.